CST,Max TemperatureF,Mean TemperatureF,Min TemperatureF,Max Dew PointF,MeanDew PointF,Min DewpointF,Max Humidity, Mean Humidity, Min Humidity, Max Sea Level PressureIn, Mean Sea Level PressureIn, Min Sea Level PressureIn, Max VisibilityMiles, Mean VisibilityMiles, Min VisibilityMiles, Max Wind SpeedMPH, Mean Wind SpeedMPH, Max Gust SpeedMPH,PrecipitationIn, CloudCover, Events, WindDirDegrees
2013-11-1,53,46,38,40,37,34,92,71,50,30.00,29.78,29.57,10,10,10,26,14,32,T,6,Rain,309
2013-11-2,56,43,29,36,31,28,100,69,38,30.15,30.09,29.98,10,10,10,13,4,16,0.00,1,,291
2013-11-3,56,48,39,35,31,28,70,54,38,30.01,29.81,29.68,10,10,10,36,18,46,0.00,4,,167
2013-11-4,50,39,27,39,32,25,92,67,42,30.19,29.96,29.73,10,10,9,20,7,24,0.03,5,Rain,277
2013-11-5,37,31,25,31,28,25,100,82,64,30.24,30.14,30.04,10,4,0,23,8,29,0.38,8,Fog-Snow,18
2013-11-6,33,27,20,29,26,19,100,88,75,30.26,30.20,30.10,10,8,0,15,4,18,0.01,5,Fog-Snow,265
2013-11-7,37,27,17,27,21,15,100,82,64,30.41,30.28,30.20,10,6,0,14,5,26,0.00,1,Fog,250
2013-11-8,52,38,23,40,32,22,96,78,59,30.21,29.85,29.65,10,10,10,29,12,38,0.00,5,,208
2013-11-9,49,38,26,34,30,22,85,66,46,30.39,30.13,29.83,10,10,10,24,12,32,0.00,1,,297
2013-11-10,48,33,18,33,26,17,92,69,46,30.42,30.28,30.12,10,10,10,17,6,22,0.00,5,,205
2013-11-11,39,22,5,31,12,2,84,71,57,30.87,30.51,30.17,10,7,0,26,12,35,0.02,5,Fog-Snow,5
2013-11-12,32,18,3,14,8,0,91,65,39,30.91,30.69,30.47,10,10,10,17,7,20,0.00,0,,204
2013-11-13,60,43,25,32,26,14,75,55,35,30.43,30.11,29.93,10,10,10,18,11,28,0.00,2,,207
2013-11-14,57,42,26,38,32,25,100,74,47,29.94,29.90,29.86,10,10,10,16,5,23,T,3,,271
2013-11-15,57,40,22,38,32,23,96,72,43,29.86,29.73,29.53,10,9,5,22,9,31,0.00,3,,166
2013-11-16,54,46,37,45,39,32,100,82,58,29.52,29.35,29.22,10,7,2,16,8,0,T,6,,179
2013-11-17,49,41,32,37,34,29,100,83,65,30.01,29.66,29.37,10,9,4,23,11,29,0.00,5,,315
2013-11-18,46,34,21,28,25,20,92,71,49,30.25,30.18,30.03,10,10,10,13,6,20,0.00,1,,329
2013-11-19,57,45,32,32,27,24,78,57,35,30.14,29.90,29.75,10,10,10,29,18,39,0.00,5,,170
2013-11-20,52,41,30,32,29,26,89,63,36,30.07,29.85,29.74,10,10,7,28,11,33,0.00,4,,143
2013-11-21,31,23,15,27,15,8,92,76,60,30.69,30.43,30.11,10,7,1,28,19,34,0.02,8,Snow,349
2013-11-22,31,15,-1,14,7,-3,91,65,39,30.76,30.68,30.58,10,10,8,21,8,25,0.00,2,,291
2013-11-23,18,10,1,4,1,-3,95,69,43,30.96,30.87,30.74,10,10,10,17,6,22,0.00,0,,344
2013-11-24,38,25,11,21,13,2,67,57,47,30.70,30.33,30.06,10,10,10,25,18,38,0.00,1,,196
2013-11-25,41,31,21,27,22,18,85,68,50,30.22,30.13,30.03,10,10,10,24,10,31,0.00,3,,290
2013-11-26,30,20,10,21,9,4,75,58,40,30.48,30.38,30.22,10,10,10,26,14,33,0.00,3,,336
2013-11-27,30,17,4,16,9,1,88,66,43,30.48,30.22,30.00,10,10,10,24,10,30,0.00,2,,189
2013-11-28,30,21,12,17,13,8,92,73,53,30.52,30.38,30.12,10,10,9,21,9,27,T,4,Snow,346
2013-11-29,38,26,14,23,17,7,80,64,48,30.51,30.29,30.09,10,10,10,28,13,34,0.00,3,,173
2013-11-30,49,34,18,29,23,15,92,67,42,30.21,30.14,30.06,10,10,6,15,4,18,0.00,3,,326